Tavèrnoles





Hora UTC 13:50
Temperatura 13.9 ºC
Humitat 64.0 %
Pressió 1025.0 hPa
Pluja 0.0 mm
Velocitat vent 0.0 km/h
Direcció vent NW
Radiació solar 513.0 W/m²

Dades diàries 2021-03-01



Hora UTC (hivern +1h; estiu +2h)
Temperatura (ºC) Humitat (%) Pressió (hPa) Velocitat vent (km/h) Precipitació (mm) Radiació solar (W/m²)
Hora UTC Aire Humitat Pressió Vel. Dir. Vel. Max Dir. Intent. màx 5 min. Rad. Sol.
00:05 5.2 89.0 1026.0 0.0 ESE 0.0 0.0 0.0
00:10 5.2 90.0 1026.0 0.0 ESE 0.0 0.0 0.0
00:15 5.3 90.0 1026.0 0.0 ESE 0.0 0.0 0.0
00:20 5.3 90.0 1026.1 0.0 ESE 0.0 0.0 0.0
00:25 5.4 90.0 1026.0 0.0 ESE 0.0 0.0 0.0
00:30 5.6 91.0 1026.0 0.0 ESE 0.0 0.0 0.0
00:35 5.8 92.0 1025.9 0.0 ESE 0.0 0.0 0.0
00:40 6.1 92.0 1026.0 0.0 ESE 0.0 0.0 0.0
00:45 6.2 91.0 1026.0 0.0 ESE 0.0 0.0 0.0
00:50 6.3 91.0 1026.0 0.0 ESE 0.0 0.0 0.0
00:55 6.4 91.0 1026.1 0.0 ESE 0.0 0.0 0.0
01:00 6.6 90.0 1026.1 0.0 ESE 0.0 0.0 0.0
01:05 6.7 90.0 1026.0 0.0 ESE 0.0 0.0 0.0
01:10 6.8 90.0 1025.9 0.0 ESE 0.0 0.0 0.0
01:15 6.9 90.0 1025.9 0.0 ESE 0.0 0.0 0.0
01:20 7.1 89.0 1026.0 0.0 ESE 0.0 0.0 0.0
01:25 7.1 88.0 1025.9 0.0 ESE 0.0 0.0 0.0
01:30 7.1 88.0 1025.9 0.0 ESE 0.0 0.0 0.0
01:35 7.2 88.0 1025.9 0.0 ESE 0.0 0.0 0.0
01:40 7.3 88.0 1025.9 0.0 ESE 0.0 0.0 0.0
01:45 7.4 87.0 1026.0 0.0 ESE 0.0 0.0 0.0
01:50 7.4 87.0 1026.1 0.0 ESE 0.0 0.0 0.0
01:55 7.4 87.0 1026.0 0.0 ESE 0.0 0.0 0.0
02:00 7.4 87.0 1026.0 0.0 ESE 0.0 0.0 0.0
02:05 7.4 87.0 1026.1 0.0 ESE 0.0 0.0 0.0
02:10 7.4 87.0 1026.0 0.0 ESE 0.0 0.0 0.0
02:15 7.5 86.0 1026.0 0.0 ESE 0.0 0.0 0.0
02:20 7.4 86.0 1025.9 0.0 ESE 0.0 0.0 0.0
02:25 7.3 85.0 1026.0 0.0 ESE 0.0 0.0 0.0
02:30 6.9 85.0 1026.0 0.0 N 0.0 0.0 0.0
02:35 6.7 87.0 1026.0 0.0 N 0.0 0.0 0.0
02:40 6.6 87.0 1026.0 0.0 N 0.0 0.0 0.0
02:45 6.4 87.0 1026.0 0.0 N 0.0 0.0 0.0
02:50 6.4 87.0 1026.0 0.0 N 0.0 0.0 0.0
02:55 6.2 87.0 1025.9 0.0 N 0.0 0.0 0.0
03:00 6.2 87.0 1025.9 0.0 N 0.0 0.0 0.0
03:05 6.1 87.0 1025.9 0.0 N 0.0 0.0 0.0
03:10 6.0 87.0 1026.0 0.0 N 0.0 0.0 0.0
03:15 5.9 88.0 1026.0 0.0 N 0.0 0.0 0.0
03:20 5.8 88.0 1026.0 0.0 N 0.0 0.0 0.0
03:25 5.8 88.0 1026.0 0.0 N 0.0 0.0 0.0
03:30 5.7 88.0 1026.0 0.0 N 0.0 0.0 0.0
03:35 5.6 88.0 1026.0 0.0 N 0.0 0.0 0.0
03:40 5.6 88.0 1026.0 0.0 N 0.0 0.0 0.0
03:45 5.5 88.0 1026.1 0.0 N 0.0 0.0 0.0
03:50 5.4 88.0 1026.1 0.0 N 1.6 0.0 0.0
03:55 5.3 88.0 1026.1 0.0 N 1.6 0.0 0.0
04:00 5.3 88.0 1026.1 0.0 N 1.6 0.0 0.0
04:05 5.2 88.0 1026.1 0.0 N 0.0 0.0 0.0
04:10 5.1 88.0 1026.1 0.0 N 0.0 0.0 0.0
04:15 4.9 88.0 1026.1 0.0 N 0.0 0.0 0.0
04:20 4.9 89.0 1026.1 0.0 N 0.0 0.0 0.0
04:25 4.8 89.0 1026.3 0.0 N 0.0 0.0 0.0
04:30 4.7 89.0 1026.2 0.0 N 0.0 0.0 0.0
04:35 4.6 88.0 1026.2 0.0 N 0.0 0.0 0.0
04:40 4.4 88.0 1026.1 0.0 N 0.0 0.0 0.0
04:45 4.3 88.0 1026.1 0.0 N 0.0 0.0 0.0
04:50 4.1 88.0 1026.1 0.0 N 0.0 0.0 0.0
04:55 3.8 88.0 1026.2 0.0 N 0.0 0.0 0.0
05:00 3.7 88.0 1026.1 0.0 N 0.0 0.0 0.0
05:05 3.5 89.0 1026.1 0.0 N 0.0 0.0 0.0
05:10 3.4 90.0 1026.2 0.0 N 0.0 0.0 0.0
05:15 3.3 90.0 1026.1 0.0 N 0.0 0.0 0.0
05:20 3.3 90.0 1026.1 0.0 N 0.0 0.0 0.0
05:25 3.1 90.0 1026.2 0.0 N 0.0 0.0 0.0
05:30 3.1 91.0 1026.2 0.0 N 0.0 0.0 0.0
05:35 3.0 91.0 1026.2 0.0 N 0.0 0.0 0.0
05:40 3.1 92.0 1026.1 0.0 N 0.0 0.0 0.0
05:45 3.1 92.0 1026.1 0.0 N 0.0 0.0 0.0
05:50 3.2 92.0 1026.1 0.0 N 0.0 0.0 0.0
05:55 3.2 92.0 1026.2 0.0 N 0.0 0.0 0.0
06:00 3.3 93.0 1026.2 0.0 N 0.0 0.0 0.0
06:05 3.4 93.0 1026.1 0.0 N 0.0 0.0 0.0
06:10 3.4 92.0 1026.2 0.0 N 0.0 0.0 0.0
06:15 3.5 92.0 1026.1 0.0 N 0.0 0.0 0.0
06:20 3.5 92.0 1026.1 0.0 N 0.0 0.0 0.0
06:25 3.4 92.0 1026.1 0.0 N 0.0 0.0 0.0
06:30 3.4 92.0 1026.1 0.0 N 0.0 0.0 0.0
06:35 3.3 92.0 1026.1 0.0 N 0.0 0.0 5.0
06:40 3.2 92.0 1026.1 0.0 N 0.0 0.0 9.0
06:45 3.2 92.0 1026.3 0.0 SSE 1.6 0.0 11.0
06:50 3.2 93.0 1026.3 0.0 SSE 1.6 0.0 12.0
06:55 3.3 93.0 1026.4 0.0 SSE 0.0 0.0 14.0
07:00 3.5 94.0 1026.4 0.0 SSE 0.0 0.0 14.0
07:05 3.7 94.0 1026.5 0.0 SSE 0.0 0.0 16.0
07:10 3.8 94.0 1026.6 0.0 SSE 0.0 0.0 19.0
07:15 3.9 94.0 1026.7 0.0 SSE 0.0 0.0 28.0
07:20 4.1 94.0 1026.7 0.0 SSE 0.0 0.0 35.0
07:25 4.3 94.0 1026.7 0.0 SSE 0.0 0.0 40.0
07:30 4.4 94.0 1026.8 0.0 SSE 0.0 0.0 47.0
07:35 4.6 94.0 1026.8 0.0 SSE 0.0 0.0 49.0
07:40 4.8 93.0 1026.8 0.0 SSE 0.0 0.0 47.0
07:45 4.8 91.0 1026.8 0.0 SSE 0.0 0.0 60.0
07:50 4.9 91.0 1026.7 0.0 SSE 0.0 0.0 69.0
07:55 5.1 90.0 1026.7 0.0 SSE 0.0 0.0 69.0
08:00 5.2 89.0 1026.7 0.0 SSE 0.0 0.0 90.0
08:05 5.4 88.0 1026.6 0.0 SSE 1.6 0.0 95.0
08:10 5.6 88.0 1026.6 0.0 NNW 1.6 0.0 93.0
08:15 5.8 86.0 1026.6 0.0 NNW 3.2 0.0 105.0
08:20 5.8 86.0 1026.6 0.0 NNW 3.2 0.0 114.0
08:25 6.1 85.0 1026.5 0.0 NNW 3.2 0.0 121.0
08:30 6.1 85.0 1026.6 0.0 NNW 3.2 0.0 107.0
08:35 6.3 84.0 1026.7 0.0 NNW 1.6 0.0 86.0
08:40 6.3 84.0 1026.6 0.0 NNW 0.0 0.0 84.0
08:45 6.4 85.0 1026.7 0.0 NNW 0.0 0.0 86.0
08:50 6.7 85.0 1026.7 0.0 NNW 0.0 0.0 74.0
08:55 6.8 83.0 1026.6 0.0 NNW 0.0 0.0 74.0
09:00 6.8 83.0 1026.6 0.0 NNW 1.6 0.0 90.0
09:05 7.0 83.0 1026.7 0.0 NNW 1.6 0.0 100.0
09:10 7.1 82.0 1026.7 0.0 NNW 0.0 0.0 109.0
09:15 7.3 84.0 1026.6 0.0 NNW 0.0 0.0 135.0
09:20 7.6 84.0 1026.6 0.0 NNW 0.0 0.0 128.0
09:25 7.8 83.0 1026.6 0.0 NW 0.0 0.0 151.0
09:30 8.0 82.0 1026.6 0.0 NW 0.0 0.0 163.0
09:35 8.3 83.0 1026.6 0.0 NW 0.0 0.0 169.0
09:40 8.7 83.0 1026.6 0.0 NW 0.0 0.0 151.0
09:45 9.0 80.0 1026.5 0.0 NW 0.0 0.0 185.0
09:50 9.4 80.0 1026.6 0.0 NW 0.0 0.0 165.0
09:55 9.6 80.0 1026.6 0.0 NNE 1.6 0.0 185.0
10:00 9.9 78.0 1026.5 0.0 NNW 4.8 0.0 195.0
10:05 10.1 78.0 1026.6 0.0 NW 4.8 0.0 174.0
10:10 10.3 77.0 1026.6 0.0 NE 6.4 0.0 216.0
10:15 10.6 76.0 1026.5 1.6 NNE 6.4 0.0 230.0
10:20 10.8 74.0 1026.4 0.0 SW 6.4 0.0 234.0
10:25 10.9 75.0 1026.4 1.6 NW 6.4 0.0 220.0
10:30 11.3 75.0 1026.4 4.8 S 6.4 0.0 232.0
10:35 11.5 76.0 1026.5 0.0 SSW 9.7 0.0 271.0
10:40 11.7 74.0 1026.6 1.6 S 9.7 0.0 221.0
10:45 11.8 72.0 1026.5 3.2 S 9.7 0.0 186.0
10:50 11.7 73.0 1026.5 4.8 SE 12.9 0.0 171.0
10:55 11.6 73.0 1026.5 0.0 ENE 12.9 0.0 223.0
11:00 11.7 72.0 1026.4 0.0 E 8.0 0.0 225.0
11:05 11.8 73.0 1026.3 0.0 NNW 4.8 0.0 169.0
11:10 11.7 70.0 1026.4 11.3 S 11.3 0.0 237.0
11:15 11.7 70.0 1026.3 6.4 S 16.1 0.0 246.0
11:20 11.9 72.0 1026.3 11.3 SSE 16.1 0.0 218.0
11:25 12.1 71.0 1026.2 6.4 E 12.9 0.0 360.0
11:30 12.4 70.0 1026.1 0.0 NNE 12.9 0.0 218.0
11:35 12.3 70.0 1026.0 0.0 NW 9.7 0.0 262.0
11:40 12.2 69.0 1026.0 0.0 NNE 8.0 0.0 271.0
11:45 12.3 67.0 1025.9 0.0 NW 6.4 0.0 209.0
11:50 12.4 68.0 1025.9 0.0 SSW 6.4 0.0 206.0
11:55 12.4 68.0 1025.9 3.2 SSE 17.7 0.0 241.0
12:00 12.4 68.0 1025.8 6.4 S 17.7 0.0 188.0
12:05 12.4 67.0 1025.8 0.0 W 11.3 0.0 195.0
12:10 12.4 66.0 1025.9 0.0 NE 9.7 0.0 207.0
12:15 12.4 66.0 1025.8 3.2 NNW 9.7 0.0 192.0
12:20 12.3 67.0 1025.8 0.0 WNW 8.0 0.0 225.0
12:25 12.3 66.0 1025.6 4.8 N 12.9 0.0 415.0
12:30 12.6 69.0 1025.5 0.0 W 12.9 0.0 547.0
12:35 12.8 65.0 1025.7 3.2 NNW 16.1 0.0 250.0
12:40 12.5 69.0 1025.5 0.0 SSW 19.3 0.0 255.0
12:45 12.6 67.0 1025.5 0.0 WSW 19.3 0.0 211.0
12:50 12.7 68.0 1025.4 0.0 NNE 6.4 0.0 294.0
12:55 12.8 64.0 1025.4 4.8 ENE 11.3 0.0 227.0
13:00 12.7 66.0 1025.4 0.0 ENE 11.3 0.0 188.0
13:05 12.7 67.0 1025.3 0.0 S 8.0 0.0 229.0
13:10 12.7 65.0 1025.3 8.0 S 16.1 0.0 241.0
13:15 12.7 66.0 1025.3 0.0 ESE 16.1 0.0 223.0
13:20 12.8 66.0 1025.2 0.0 NW 17.7 0.0 295.0
13:25 13.3 64.0 1025.2 12.9 SE 17.7 0.0 454.0
13:30 13.7 65.0 1025.2 14.5 SSE 19.3 0.0 360.0
13:35 13.7 64.0 1025.2 3.2 WSW 19.3 0.0 211.0
13:40 13.7 62.0 1025.1 3.2 SW 17.7 0.0 294.0
13:45 13.7 64.0 1024.9 1.6 SSE 17.7 0.0 369.0
13:50 13.9 64.0 1025.0 0.0 NW 17.7 0.0 513.0
Màxima 13.9 94.0 1026.8 14.5 SSE 19.3 0.0 547.0
Mínima 3.0 62.0 1024.9
Total 0.0